CUBESX-HSE-2 (RS21S)

Last updated on Fri May 10 2024 00:02:57 GMT+0000 (Coordinated Universal Time)

1 53383U 22096P 24130.02508819 .05233343 25038-5 11740-2 0 9995 2 53383 97.3710 52.2496 0008671 196.6126 163.4886 16.30186820 98460

Satellite not in orbit

CUBESX-HSE-2 (RS21S)